Location: Innerarity Island Observatory
(30.3139°N, 87.4867°W)
Time: 06:59:34
(UTC-06:00)

FO-29 - Visible Passes

Search period start: 22 February 2018 00:00
Search period end: 04 March 2018 00:00
Orbit: 800 x 1322 km, 98.5° (Epoch: 21 February)

Date Brightness Start Highest point End Pass type
(mag) Time Alt. Az. Time Alt. Az. Time Alt. Az.
22 Feb 11.1 18:18:48 10° ENE 18:22:34 16° E 18:26:33 10° SE visible
22 Feb 9.9 20:01:24 10° N 20:07:42 69° WNW 20:14:49 10° SSW visible
23 Feb 10.0 19:06:37 10° NNE 19:12:45 44° E 19:19:35 10° S visible
23 Feb 11.5 20:52:22 10° NNW 20:57:32 27° WNW 21:03:12 10° WSW visible
24 Feb 11.2 18:14:04 10° ENE 18:17:36 15° E 18:21:19 10° SE visible
24 Feb 9.9 19:56:19 10° N 20:02:46 74° WNW 20:10:02 10° SSW visible
25 Feb 10.1 19:01:38 10° NNE 19:07:49 41° E 19:14:38 10° SSE visible
25 Feb 11.4 20:47:09 10° NNW 20:52:37 29° WNW 20:58:36 10° SW visible
26 Feb 11.3 18:09:22 10° ENE 18:12:38 14° E 18:16:01 10° ESE visible
26 Feb 9.8 19:51:15 10° N 19:57:50 80° WNW 20:05:14 10° SSW visible
26 Feb 12.5 21:41:14 10° NW 21:42:07 10° WNW 21:43:01 10° WNW visible
27 Feb 10.2 18:56:39 10° NNE 19:02:52 39° E 19:09:41 10° SSE visible
27 Feb 11.3 20:41:58 10° N 20:47:41 32° WNW 20:53:57 10° SW visible
28 Feb 11.3 18:04:45 10° ENE 18:07:39 13° E 18:10:39 10° ESE visible
28 Feb 9.8 19:46:11 10° N 19:52:55 85° WNW 20:00:25 10° SSW visible
28 Feb 12.4 21:35:00 10° NW 21:37:13 12° WNW 21:39:30 10° W visible
01 Mar 10.4 18:51:42 10° NNE 18:57:57 36° E 19:04:43 10° SSE visible
01 Mar 11.2 20:36:49 10° N 20:42:46 35° WNW 20:49:18 10° SW visible
02 Mar 9.8 19:41:08 10° NNE 19:48:00 90° ESE 19:55:36 10° SSW visible
02 Mar 12.4 21:29:20 10° NW 21:32:20 13° WNW 21:35:26 10° W visible
03 Mar 10.5 18:46:46 10° NE 18:53:01 34° E 18:59:44 10° SSE visible
03 Mar 11.1 20:31:40 10° N 20:37:52 38° WNW 20:44:38 10° SW visible
